Lübeck Blankensee Airport

Jump to: basic info | weather | frequencies | runways | comments

Related pages: nearby airports | nearby navaids | notams | map

Basic information (top)

Codes: LBC EDHL
Location: lon 53.805401, lat 10.719200, elev 53 ft / 16 m msl
Status: medium_airport
Scheduled airline service: yes
Links: Wikipedia Mobile

Weather (top)

Current conditions (rec'd 2015/03/06 17:20Z):

EDHL 061720Z 24006KT 9999 BKN040 08/05 Q1032 RMK ATIS X-R

Airport forecast for Hamburg Airport 28nm (52km) WSW (rec'd 2015/03/06 12:27Z):

TAF EDDH 061100Z 0612/0718 24008KT 9999 FEW020 BKN045 
      TEMPO 0711/0716 21015G25KT

Frequencies (top)

Verify before use: may be inaccurate or out of date.

AFIS: 125.1 MHz (BREMEN INFO)
ATIS: 119.925 MHz (ATIS)
GND: 121.775 MHz (GND)
INFO: 128.7 MHz (INFO)
RDR: 124.225 MHz (BREMEN RADAR)
TWR: 128.7 MHz (TWR)

Runways (top)

07/25: 6,896 x 197 ft (2,102 x 60 m) — paved — lighted — threshold 07 displaced 984 ft (300 m)

Latest comments (top)

No comments yet for Lübeck Blankensee Airport

More... (top)

See also NOTAMs and nearby airports and navaids, or visit the Lübeck Blankensee Airport page at the main OurAirports website..